TimeEDT,TemperatureF,Dew PointF,Humidity,Sea Level PressureIn,VisibilityMPH,Wind Direction,Wind SpeedMPH,Gust SpeedMPH,PrecipitationIn,Events,Conditions,WindDirDegrees,DateUTC
12:54 AM,37.0,28.0,70,30.05,10.0,West,9.2,-,N/A,,Overcast,270,2013-03-28 04:54:00
1:54 AM,36.0,27.0,70,30.05,10.0,WNW,8.1,-,N/A,,Scattered Clouds,290,2013-03-28 05:54:00
2:54 AM,35.1,27.0,72,30.04,10.0,West,6.9,-,N/A,,Mostly Cloudy,270,2013-03-28 06:54:00
3:54 AM,36.0,28.9,76,30.04,9.0,West,6.9,-,0.00,Snow,Light Snow,270,2013-03-28 07:54:00
4:54 AM,35.1,30.0,82,30.04,10.0,West,5.8,-,0.00,,Overcast,280,2013-03-28 08:54:00
5:54 AM,35.1,30.0,82,30.04,10.0,West,4.6,-,N/A,,Overcast,260,2013-03-28 09:54:00
6:54 AM,35.1,30.0,82,30.05,10.0,West,6.9,-,N/A,,Overcast,270,2013-03-28 10:54:00
7:54 AM,36.0,30.0,79,30.07,10.0,West,8.1,-,N/A,,Overcast,260,2013-03-28 11:54:00
8:54 AM,37.0,30.0,76,30.09,10.0,West,6.9,-,N/A,,Overcast,280,2013-03-28 12:54:00
9:54 AM,39.9,28.0,63,30.10,10.0,WNW,5.8,-,N/A,,Overcast,300,2013-03-28 13:54:00
10:54 AM,43.0,25.0,49,30.10,10.0,NNW,11.5,-,N/A,,Overcast,330,2013-03-28 14:54:00
11:54 AM,45.0,24.1,44,30.11,10.0,NW,6.9,16.1,N/A,,Overcast,320,2013-03-28 15:54:00
12:54 PM,45.0,21.9,40,30.10,10.0,WNW,10.4,-,N/A,,Overcast,290,2013-03-28 16:54:00
1:54 PM,45.0,23.0,42,30.11,10.0,NW,6.9,-,N/A,,Overcast,310,2013-03-28 17:54:00
2:54 PM,46.0,21.9,39,30.11,10.0,NW,12.7,21.9,N/A,,Overcast,310,2013-03-28 18:54:00
3:54 PM,46.0,23.0,40,30.11,10.0,NW,9.2,-,N/A,,Overcast,320,2013-03-28 19:54:00
4:54 PM,46.0,23.0,40,30.11,10.0,NW,10.4,-,N/A,,Overcast,320,2013-03-28 20:54:00
5:54 PM,45.0,23.0,42,30.13,10.0,WNW,6.9,-,N/A,,Overcast,300,2013-03-28 21:54:00
6:54 PM,44.1,23.0,43,30.15,10.0,NW,9.2,-,N/A,,Overcast,310,2013-03-28 22:54:00
7:54 PM,43.0,23.0,45,30.17,10.0,WNW,8.1,-,N/A,,Overcast,300,2013-03-28 23:54:00
8:54 PM,42.1,23.0,47,30.19,10.0,WNW,6.9,-,N/A,,Overcast,300,2013-03-29 00:54:00
9:54 PM,41.0,24.1,51,30.20,10.0,WNW,5.8,-,N/A,,Overcast,300,2013-03-29 01:54:00
10:54 PM,41.0,24.1,51,30.21,10.0,WNW,5.8,-,N/A,,Overcast,290,2013-03-29 02:54:00
11:54 PM,39.9,24.1,53,30.21,10.0,WNW,4.6,-,N/A,,Overcast,300,2013-03-29 03:54:00